Regional Weather Roundup
Issued by NWS Kansas City/Pleasant Hill, MO

Home | Current Version | Previous Version | Text Only | Print | Product List | Glossary On
Versions: 1 2 3 4 5 6 7 8 9 10 11 12 13 14 15 16 17 18 19 20 21 22 23 24 25 26 27
000
ASUS43 KEAX 252110
RWREAX

WEATHER ROUNDUP FOR EASTERN KANSAS AND NORTHWEST MISSOURI
NATIONAL WEATHER SERVICE KANSAS CITY/PLEASANT HILL MO
400 PM CDT MON SEP 25 2017

KSZ040-057-103>105-MOZ028-029-037-043-252200-
...KANSAS CITY METROPOLITAN AREA...

CITY           SKY/WX    TMP DP  RH WIND       PRES   REMARKS
K.C. INTL      PTSUNNY   84  66  54 S13       29.87F
K.C. DOWNTOWN  MOSUNNY   88  66  48 S13       29.85F HX  90
LEES SUMMIT    MOSUNNY   87  65  47 S14       29.88F
OLATHE - IXD   MOSUNNY   83  65  54 S10       29.88F
OLATHE - OJC   SUNNY     82  66  58 S13       29.88F
LAWRENCE       PTSUNNY   86  65  49 S13       29.85F

$$

MOZ001>008-011>017-020>025-030>033-038>040-044>046-053-054-252200-
...NORTHERN AND CENTRAL MISSOURI...

CITY           SKY/WX    TMP DP  RH WIND       PRES   REMARKS
ST. JOSEPH     CLOUDY    86  67  52 S13G24    29.85S
MOSBY          PTCLDY    84  61  45 S6        29.87F
WARRENSBURG    SUNNY     86  63  45 S9        29.89F
WHITEMAN AFB   MOSUNNY   87  63  43 S14       29.88F
CLINTON        SUNNY     86  64  48 S10       29.90F
SEDALIA        SUNNY     89  66  46 S12       29.91F HX  91
WARSAW         NOT AVBL
CHILLICOTHE      N/A     86  65  49 S9        29.87F
KIRKSVILLE     CLOUDY    88  63  43 SW9       29.89F

$$

MOZ041-047>049-056>058-063>065-088>090-097-252200-
...EASTERN AND SOUTHERN MISSOURI...

CITY           SKY/WX    TMP DP  RH WIND       PRES   REMARKS
ST. LOUIS INTL MOSUNNY   89  61  38 S7        29.91F
SPIRIT OF STL  MOSUNNY   89  64  43 CALM      29.89F HX  90
COLUMBIA       MOSUNNY   88  64  44 S12       29.91F
JEFFERSON CITY MOSUNNY   88  63  43 SW7       29.89F
ROLLA          MOSUNNY   89  59  36 S12G17    29.93F
OSAGE BEACH    LGT RAIN  86  66  51 S5        29.92F
SPRINGFIELD    SUNNY     88  61  40 SE12G22   29.91F
BRANSON        PTSUNNY   84  59  42 E12       29.94F
JOPLIN         MOSUNNY   86  64  47 S10       29.89F
WEST PLAINS    SUNNY     86  58  38 SE9       29.96F

$$

IAZ060-094-KSZ022-034>040-054-083-096-NEZ052-066-093-252200-
...KANSAS...SOUTHEAST NEBRASKA AND IOWA...

CITY           SKY/WX    TMP DP  RH WIND       PRES   REMARKS
TOPEKA         CLOUDY    77  67  71 NW16G23   29.85S
MANHATTAN      LGT RAIN  69  65  86 NE8       29.88F
EMPORIA        CLOUDY    85  63  47 S17       29.84F
CHANUTE        MOSUNNY   85  66  53 S12       29.87F
WICHITA        LGT RAIN  67  66  97 NW17      29.89F VSB 1
OMAHA          LGT RAIN  65  62  90 NW8       29.92R
LINCOLN        LGT RAIN  62  59  90 N6        29.94F
FALLS CITY     LGT RAIN  67  66  97 NW14G25   29.90R
LAMONI         PTSUNNY   85  66  53 S14G23    29.85F
DES MOINES     CLOUDY    75  64  69 NW16      29.85R THUNDER

$$





USA.gov is the U.S. government's official web portal to all federal, state and local government web resources and services.